User: anonymous
Location: Bangkok
(13.7500°N, 100.5170°E)
Time: 10:44:08
(UTC+07:00)
Language:

Cosmos 1898 Rocket - Orbit

View from above orbital plane
View from above orbital plane
View from above satellite
View from above satellite

Ground track
Ground track

The orbit data is extracted from the following two-line orbital elements,

1 18586U 87098B   14292.52520709  .00000229  00000-0  86863-4 0  1549
2 18586 074.0063 284.2447 0021513 214.0662 285.0038 14.36472749407828
Epoch (UTC): 19 October 2014 12:36:17
Eccentricity: 0.0021513
inclination: 74.0063°
perigee height: 755 km
apogee height: 785 km
right ascension of ascending node: 284.2447°
argument of perigee: 214.0662°
revolutions per day: 14.36472749
mean anomaly at epoch: 285.0038°
orbit number at epoch: 40782

The dashed part of the orbit path shows where the satellite is in the earth's shadow,  

DLR